Location: Bemmer
(51.5498°N, 5.6249°E)
Time: 13:09:27
(UTC+00:00)

SJ 16-02 - Pass Details

Date: 03 March 2021
Orbit: 605 x 617 km, 75.0° (Epoch: 11 April)

Event Time Altitude Azimuth Distance (km) Brightness Sun altitude
Rises 17:54:41 0° 347° (NNW) 2,884 4.9 -5.9°
Reaches altitude 10° 17:58:31 10° 21° (NNE) 1,978 3.7 -6.5°
Maximum altitude 18:00:03 12° 41° (NE) 1,873 3.4 -6.8°
Drops below altitude 10° 18:01:36 10° 62° (ENE) 1,976 3.4 -7.0°
Enters shadow 18:02:33 - 73° (ENE) 2,133 3.5 -7.2°
